Showing default

LING QIAO, 40136

Orbit data source: Space-Track

LING QIAO, 40136 is a payload satellite owned by Tsinghua (CN) in SSO that was launched on Thu, 04 Sep 2014 UTC via a CHANG ZHENG 2D launch vehicle from the Jiuquan Satellite Launch Center, China (JSC). Payload-class satellites include a variety of spacecraft equipped with specific instruments for various scientific and technological missions. These include communications satellites like Starlink; space stations such as the ISS; scientific satellites like the Hubble; Earth observation satellites from companies like Planet Labs, Umbra, and HawkEye 360; GPS; miniature CubeSats for education and research; and military/defense satellites.

Loading next visibility...
Identifier
40136, 2014-051A
Orbit
SSO
Country
Flag of CNCN / PRC
Related business
Manufacturer
Tsinghua
Mission
Operational Amateur Communications
Bus & Motor
LQ, Unknown motor
Mass
135 kg wet, 135 kg dry
Launch date (UTC)
2014-09-04 (11 years ago)
Launch vehicle
CHANG ZHENG 2D
Launch site
Jiuquan Satellite Launch Center, China (JSC)
Object type
Payload
Rocket body
Debris
Shape & HBR
Box, 1.0 m
Radar Cross Section
1.500 m², Medium (>0.1 m² and < 1m²)

Expand to show TLE details & history
Last TLE update: 4 hours ago

TLE from 4 hours ago
0 LING QIAO
1 40136U 14051A   26062.91213759 -.00000018  00000-0  10031-4 0  9997
2 40136  98.7055  64.6288 0021755 119.9513 240.3832 14.30250467599954
Epoch: 2026-03-03T21:53Z
TLE epoch observation values (Epoch: 2026-03-03T21:53:28.687Z)
Latitude
-0.00011°
Longitude
-65.42511°
Altitude
801.557 km
Speed
7.449 km/s
True Right ascension
04h 18m 30s
True Declination
0° 00' 00"
Sunlit
Object was in daylight at epoch
Visualization orbit readout
Latitude
Unknown
Longitude
Unknown
Altitude
Unknown
Speed
Unknown
Apparent Right ascension
Unknown
Apparent Declination
Unknown
Sunlit
N/A
Visualization observer readout
Local Sidereal Time
05:40:15
Azimuth
Unknown
Elevation
Unknown
Doppler factor
Unknown
Orbital elements
Apogee altitude
803.628 km
Perigee altitude
772.448 km
Semi-major axis
7,166.175 km
Eccentricity
0.00218
Inclination
98.7055°
RAAN
64.6288°
Arg. of periapsis
119.9513°
True anomaly
240.16677°
Mean anomaly
240.3832°
Eccentric anomaly
240.27495°
Mean motion
3.57777 °/min
Orbital period
100.62 mins
BSTAR
0.000010031
Loading maneuver chart data...
Computing Atmospheric mass density...
Loading historical data...
Loading historical data...
Loading historical data...
Loading historical data...
Loading historical data...
Loading historical data...
Loading historical data...
Other satellites on launch #51 in the year 2014 (2014-09-04 UTC)

Documentation

Showing up to 5 results
|